User: anonymous   Login
Location: Los Ranchitos
(37.9930°N, 122.5425°W)
Time: 11:46:01
(UTC+00:00)
Language:

ATLAS 3B R/B - Orbit

View from above orbital plane
View from above orbital plane
View from above satellite
View from above satellite

Ground track
Ground track

The orbit data is extracted from the following two-line orbital elements,

1 28538U 05004B   21161.03253313 0.00000020  00000-0  33402-4 0    07
2 28538  63.8270 232.0963 0122816  12.9703 347.0297 13.43144748    02
Epoch (UTC): 10 June 2021 00:46:50
Eccentricity: 0.0122816
inclination: 63.8270°
perigee height: 1006 km
apogee height: 1189 km
right ascension of ascending node: 232.0963°
argument of perigee: 12.9703°
revolutions per day: 13.43144748
mean anomaly at epoch: 347.0297°
orbit number at epoch: 0

The dashed part of the orbit path shows where the satellite is in the earth's shadow,  

DLR